RS-44 & BREEZE-KM R/B

Last updated on Wed Sep 09 2026 00:03:15 GMT+0000 (Coordinated Universal Time)

1 44909U 19096E 26251.57889361 .00000026 00000+0 68040-4 0 9993 2 44909 82.5182 284.2967 0216582 309.5945 48.6205 12.79749178313019
UTC large
Height (km)
Speed (km/s)
/
Latitude / Longitude
Inclination (degrees)
Orbital Period (minutes)
Azimuth
Elevation
Range (km)
Doppler Factor

Next 0 passes for location: London (51.5072 / 0.1276)

No passes found over London.
RS-44 & BREEZE-KM R/B